WX2DX-2 Weather Reports


Display with metric or nautical units.
time (UTC)temp
F
wind
direction
speed
MPH
gust
MPH
rain 1hr
in
rain 24hr
in
rain mn
in
humidity
%
barometer
mb
20260831114508 65 327 0.0 0.0 0.00 0.00 0.00 96 1021.4
20260831113007 65 327 0.0 1.0 0.00 0.00 0.00 96 1021.0
20260831111506 65 327 0.0 0.0 0.00 0.00 0.00 96 1021.0
20260831110005 65 327 0.0 3.0 0.00 0.00 0.00 96 1020.8
20260831104510 65 69 0.0 2.0 0.00 0.00 0.00 96 1020.8
20260831103004 65 69 0.0 1.0 0.00 0.00 0.00 95 1020.9
20260831101503 65 69 0.0 1.0 0.00 0.00 0.00 95 1020.6
20260831100010 65 69 0.0 3.0 0.00 0.00 0.00 95 1020.4
20260831094502 65 102 1.0 2.0 0.00 0.00 0.00 95 1020.6
20260831093001 65 252 0.0 1.0 0.00 0.00 0.00 95 1020.6
20260831091605 65 140 1.0 2.0 0.00 0.00 0.00 95 1020.5
20260831090109 66 140 0.0 2.0 0.00 0.00 0.00 95 1020.4
20260831084600 66 109 1.0 2.0 0.00 0.00 0.00 95 1020.4
20260831083058 66 109 0.0 2.0 0.00 0.00 0.00 95 1020.4
20260831081600 66 109 0.0 0.0 0.00 0.00 0.00 95 1020.1
20260831080055 66 109 0.0 2.0 0.00 0.00 0.00 95 1020.2
20260831074555 66 159 0.0 0.0 0.00 0.00 0.00 95 1020.2
20260831073053 66 159 0.0 1.0 0.00 0.00 0.00 95 1020.2
20260831071653 66 159 0.0 1.0 0.00 0.00 0.00 95 1019.9
20260831070109 66 159 0.0 3.0 0.00 0.00 0.00 95 1020.0
20260831064547 66 174 0.0 3.0 0.00 0.00 0.00 95 1020.3
20260831063045 66 174 0.0 0.0 0.00 0.00 0.00 95 1020.6
20260831061545 66 174 0.0 0.0 0.00 0.00 0.00 95 1020.6
20260831060049 67 174 0.0 1.0 0.00 0.00 0.00 94 1020.7
20260831054540 67 174 0.0 1.0 0.00 0.00 0.00 94 1020.9
20260831053038 67 174 1.0 2.0 0.00 0.00 0.00 94 1021.0
20260831051549 67 174 0.0 2.0 0.00 0.00 0.00 94 1021.1
20260831050037 68 174 0.0 1.0 0.00 0.00 0.00 94 1021.1
20260831044537 68 174 1.0 2.0 0.00 0.00 0.00 94 1021.1
20260831043030 68 174 0.0 1.0 0.00 0.00 0.00 94 1021.3
20260831041534 68 174 0.0 1.0 0.00 0.00 0.00 94 1021.4
20260831040041 68 174 0.0 2.0 0.00 0.00 0.00 93 1021.4
20260831034526 68 174 0.0 2.0 0.00 0.00 0.00 93 1021.4
20260831033026 68 146 0.0 0.0 0.00 0.00 0.00 93 1021.6
20260831031526 68 146 0.0 0.0 0.00 0.00 0.00 92 1021.5
20260831030029 68 146 0.0 0.0 0.00 0.00 0.00 92 1021.6
20260831024526 68 146 0.0 1.0 0.00 0.00 0.00 92 1021.7
20260831023035 68 146 0.0 3.0 0.00 0.00 0.00 91 1021.7
20260831021545 68 82 0.0 0.0 0.00 0.00 0.00 91 1021.7
20260831020022 69 82 1.0 2.0 0.00 0.00 0.00 91 1021.7
20260831014523 69 114 0.0 1.0 0.00 0.00 0.00 90 1021.6
20260831013023 69 114 0.0 1.0 0.00 0.00 0.00 89 1021.6
20260831011521 69 114 0.0 2.0 0.00 0.00 0.00 89 1021.4
20260831010040 69 37 0.0 0.0 0.00 0.00 0.00 89 1021.1
20260831004522 69 37 0.0 1.0 0.00 0.00 0.00 88 1020.8
20260831003021 70 37 0.0 0.0 0.00 0.00 0.00 87 1020.4
20260831001530 70 37 0.0 2.0 0.00 0.00 0.00 86 1020.1
20260831000021 71 37 1.0 2.0 0.00 0.00 0.00 84 1020.0
20260830234519 72 149 0.0 1.0 0.00 0.00 0.00 82 1019.9
20260830233019 73 149 0.0 2.0 0.00 0.00 0.00 81 1019.8
20260830231526 73 180 2.0 4.0 0.00 0.00 0.00 79 1019.9
20260830230017 74 318 1.0 4.0 0.00 0.00 0.00 79 1019.9
20260830224517 74 306 0.0 4.0 0.00 0.00 0.00 80 1020.0
20260830223019 74 311 1.0 4.0 0.00 0.00 0.00 79 1020.1
20260830221516 74 203 1.0 4.0 0.00 0.00 0.00 78 1020.2
20260830220018 75 309 1.0 4.0 0.00 0.00 0.00 77 1020.2
20260830214514 75 319 0.0 3.0 0.00 0.00 0.00 77 1020.2
20260830213013 76 272 1.0 3.0 0.00 0.00 0.00 77 1020.1
20260830211520 77 315 1.0 3.0 0.00 0.00 0.00 74 1020.1
20260830210014 77 299 1.0 4.0 0.00 0.00 0.00 72 1020.0
20260830204513 78 273 1.0 3.0 0.00 0.00 0.00 73 1019.9
20260830203014 78 323 0.0 3.0 0.00 0.00 0.00 72 1019.9
20260830201512 79 292 1.0 3.0 0.00 0.00 0.00 72 1019.8
20260830200009 80 292 0.0 5.0 0.00 0.00 0.00 70 1020.0
20260830194508 80 275 0.0 3.0 0.00 0.00 0.00 69 1020.1
20260830193005 81 311 1.0 4.0 0.00 0.00 0.00 65 1020.2
20260830191507 81 275 0.0 5.0 0.00 0.00 0.00 68 1020.3
20260830190004 81 263 1.0 6.0 0.00 0.00 0.00 69 1020.7
20260830184501 80 286 0.0 6.0 0.00 0.00 0.00 70 1020.8
20260830183119 81 263 2.0 6.0 0.00 0.00 0.00 66 1020.7
20260830181603 80 259 1.0 4.0 0.00 0.00 0.00 72 1021.0
20260830180108 79 234 3.0 7.0 0.00 0.00 0.00 72 1021.1
20260830174555 79 213 3.0 6.0 0.00 0.00 0.00 70 1021.2
20260830173114 80 231 2.0 8.0 0.00 0.00 0.00 69 1021.4
20260830171559 80 211 1.0 5.0 0.00 0.00 0.00 71 1021.4
20260830170045 79 273 2.0 7.0 0.00 0.00 0.00 72 1021.6
20260830164542 79 251 2.0 4.0 0.00 0.00 0.00 73 1021.7
20260830163039 77 289 1.0 7.0 0.00 0.00 0.00 72 1021.8
20260830161546 78 54 1.0 5.0 0.00 0.00 0.00 74 1021.8
20260830160035 77 133 1.0 5.0 0.00 0.00 0.00 73 1021.9
20260830154533 76 198 1.0 6.0 0.00 0.00 0.00 75 1022.1
20260830153028 75 238 0.0 7.0 0.00 0.00 0.00 74 1022.3
20260830151525 74 245 4.0 8.0 0.00 0.00 0.00 78 1022.4
20260830150023 72 270 1.0 7.0 0.00 0.00 0.00 76 1022.3
20260830144546 72 215 2.0 4.0 0.00 0.00 0.00 77 1022.3
20260830143049 72 250 0.0 7.0 0.00 0.00 0.00 79 1022.3
20260830141542 71 178 2.0 5.0 0.00 0.00 0.00 76 1022.4
20260830140037 69 246 2.0 6.0 0.00 0.00 0.00 77 1022.4
20260830134546 69 224 3.0 7.0 0.00 0.00 0.00 76 1022.5
20260830133037 69 263 3.0 4.0 0.00 0.00 0.00 79 1022.6
20260830131530 68 175 1.0 3.0 0.00 0.00 0.00 80 1022.7
20260830130028 67 213 1.0 3.0 0.00 0.00 0.00 80 1022.6
20260830124526 65 275 0.0 0.0 0.00 0.00 0.00 87 1022.7
20260830123021 63 120 0.0 0.0 0.00 0.00 0.00 89 1022.8
20260830121516 62 120 0.0 0.0 0.00 0.00 0.00 90 1022.8
20260830120014 61 100 0.0 0.0 0.00 0.00 0.00 92 1022.9